Flag for Finland Weather past 2 weeks in Rovaniemi, Finland

Now
1 °F

Light snow. Overcast.


Feels Like: -6 °F
Forecast: -7 / 0 °F
Wind: 3 mph from Northwest

Location: Rovaniemi Airport

Current Time: Dec 23, 2014 at 7:12:19 AM

Latest Report: Dec 23, 2014 at 6:50 AM


Visibility: 1 mi

Pressure: 29.30 "Hg

Humidity: 92%

Dew point: 0 °F

Location of RovaniemiLocation

Historic Weather in Rovaniemi — Graph

°F

Rovaniemi temperature yesterday

Maximum temperature yesterday: 23 °F (at 12:20 AM)
Minimum temperature yesterday: 9 °F (at 5:20 PM)
Average temperature yesterday: 14 °F

Past Weeks' High & Low Weather Summary

 TemperatureHumidityPressure
High36 °F (Dec 8, 6:20 AM)100% (Dec 8, 5:20 AM)29.65 "Hg (Dec 8, 5:20 AM)
Low0 °F (Dec 23, 2:50 AM)84% (Dec 23, 2:50 AM)28.80 "Hg (Dec 20, 7:20 AM)
Average26 °F98%29.25 "Hg
* Reported Dec 8 5:20 AM — Dec 23 5:20 AM, Rovaniemi, Weather by CustomWeather, © 2014

Note: Actual official high and low records may vary slightly from our data, if they occured in-between our weather recording intervals... More about our weather records

Advertising

Rovaniemi weather history for previous 24 hours

 ConditionsComfort  
Time TempWeatherWind HumidityBarometerVisibility
5:20 AM
Dec 23
0 °FLight snow. Mostly cloudy.2 mph92%29.30 "Hg6 mi
4:50 AM0 °FSnow flurries. Overcast.5 mph92%29.30 "Hg4 mi
4:20 AM1 °FSnow flurries. Overcast.3 mph92%29.30 "Hg6 mi
3:50 AM1 °FMostly cloudy.1 mph92%29.30 "HgN/A
3:20 AM0 °FLight snow. Passing clouds.3 mph92%29.30 "HgN/A
2:50 AM0 °FPassing clouds.6 mph84%29.30 "HgN/A
2:20 AM1 °FPassing clouds.7 mph85%29.30 "HgN/A
1:50 AM3 °FSnow flurries. Partly cloudy.6 mph92%29.30 "HgN/A
1:20 AM7 °FSnow flurries. Overcast.3 mph92%29.30 "HgN/A
12:20 AM9 °FLight snow. Mostly cloudy.3 mph92%29.30 "HgN/A
11:50 PM
Dec 22
9 °FMostly cloudy.7 mph92%29.30 "HgN/A
11:20 PM9 °FMostly cloudy.5 mph92%29.30 "HgN/A
10:50 PM9 °FOvercast.6 mph92%29.30 "HgN/A
10:20 PM9 °FSnow flurries. Mostly cloudy.2 mph92%29.30 "HgN/A
9:50 PM9 °FOvercast.5 mph92%29.30 "HgN/A
9:20 PM9 °FOvercast.3 mph92%29.30 "HgN/A
8:50 PM10 °FOvercast.2 mph92%29.30 "HgN/A
8:20 PM10 °FLow clouds.2 mph92%29.30 "HgN/A
7:50 PM9 °FMostly cloudy.3 mph100%29.30 "HgN/A
7:20 PM9 °FOvercast.5 mph92%29.30 "HgN/A
6:50 PM9 °FMostly cloudy.5 mph100%29.30 "HgN/A
6:20 PM10 °FOvercast.3 mph92%29.30 "HgN/A
5:50 PM10 °FPassing clouds.2 mph92%29.30 "HgN/A
5:20 PM9 °FPassing clouds.5 mph92%29.30 "HgN/A
4:50 PM10 °FPassing clouds.7 mph92%29.30 "HgN/A
4:20 PM10 °FPartly cloudy.3 mph92%29.30 "HgN/A
3:50 PM10 °FPassing clouds.8 mph92%29.30 "HgN/A
3:20 PM10 °FPartly cloudy.7 mph100%29.30 "HgN/A
2:50 PM10 °FPartly cloudy.3 mph100%29.30 "HgN/A
2:20 PM10 °FClear.6 mph92%29.30 "Hg10 mi
1:50 PM12 °FPassing clouds.3 mph92%29.30 "HgN/A
1:20 PM12 °FPassing clouds.3 mph92%29.33 "HgN/A
12:50 PM14 °FPartly sunny.3 mph92%29.33 "HgN/A
12:26 PM14 °FScattered clouds.3 mph92%29.33 "HgN/A
12:20 PM14 °FScattered clouds.3 mph92%29.33 "HgN/A
11:50 AM14 °FScattered clouds.5 mph92%29.33 "HgN/A
11:20 AM14 °FPartly sunny.6 mph92%29.33 "HgN/A
10:50 AM16 °FPartly cloudy.6 mph86%29.33 "HgN/A
10:20 AM14 °FPassing clouds.7 mph92%29.33 "HgN/A
9:50 AM14 °FLight snow. Passing clouds.8 mph92%29.33 "HgN/A
9:20 AM14 °FSnow flurries. Partly cloudy.7 mph92%29.33 "HgN/A
8:50 AM14 °FPassing clouds.5 mph92%29.33 "HgN/A
8:20 AM14 °FPassing clouds.7 mph100%29.33 "HgN/A
7:50 AM16 °FPassing clouds.7 mph93%29.33 "HgN/A
7:20 AM16 °FClear.6 mph100%29.33 "Hg10 mi
Weather by CustomWeather, © 2014

See weather overviewHow to use our weather pages